Location: Bothwell
(42.3833°S, 147.0000°E)
Time: 00:09:53
(UTC+10:00)

Envisat - Pass Details

Date: 27 February 2024
Orbit: 762 x 764 km, 98.3° (Epoch: 24 April)

Event Time Altitude Azimuth Distance (km) Brightness Sun altitude
Exits shadow 02:05:40 11° 112° (ESE) 2,245 5.7 -38.0°
Maximum altitude 02:06:35 12° 122° (ESE) 2,213 5.8 -38.0°
Drops below altitude 10° 02:08:16 10° 142° (SE) 2,330 6.1 -37.9°
Sets 02:12:15 0° 173° (S) 3,267 7.2 -37.7°
